| time (UTC) | temp C | wind direction | speed KPH | gust KPH | rain 1hr cm | rain 24hr cm | rain mn cm | humidity % | barometer mb |
| 20260503210651 | 12 | 298 | 8.0 | 14.5 | 0.00 | 0.00 | 0.00 | 87 | 1010.4 |
| 20260503210138 | 12 | 292 | 9.7 | 14.5 | 0.00 | 0.00 | 0.00 | 87 | 1010.4 |
| 20260503205112 | 12 | 289 | 9.7 | 11.3 | 0.00 | 0.00 | 0.00 | 87 | 1010.4 |
| 20260503204559 | 13 | 310 | 8.0 | 9.7 | 0.00 | 0.00 | 0.00 | 87 | 1010.3 |
| 20260503204047 | 13 | 329 | 6.4 | 9.7 | 0.00 | 0.00 | 0.00 | 87 | 1010.4 |
| 20260503203533 | 13 | 296 | 8.0 | 9.7 | 0.00 | 0.00 | 0.00 | 87 | 1010.4 |
| 20260503203020 | 13 | 0 | 0.0 | 0.0 | 0.00 | 0.00 | 0.00 | 88 | 1010.4 |
| 20260503202507 | 13 | 0 | 0.0 | 0.0 | 0.00 | 0.00 | 0.00 | 88 | 1010.4 |
| 20260503201954 | 13 | 0 | 0.0 | 4.8 | 0.00 | 0.00 | 0.00 | 89 | 1010.4 |
| 20260503201441 | 13 | 0 | 0.0 | 4.8 | 0.00 | 0.00 | 0.00 | 89 | 1010.4 |
| 20260503200928 | 12 | 0 | 0.0 | 4.8 | 0.00 | 0.00 | 0.00 | 90 | 1010.4 |
| 20260503200415 | 12 | 295 | 3.2 | 4.8 | 0.00 | 0.00 | 0.00 | 90 | 1010.4 |
| 20260503195902 | 12 | 268 | 3.2 | 9.7 | 0.00 | 0.00 | 0.00 | 90 | 1010.5 |
| 20260503195349 | 12 | 319 | 8.0 | 9.7 | 0.00 | 0.00 | 0.00 | 90 | 1010.6 |
| 20260503194836 | 11 | 305 | 4.8 | 9.7 | 0.00 | 0.00 | 0.00 | 90 | 1010.6 |
| 20260503194324 | 11 | 312 | 8.0 | 9.7 | 0.00 | 0.00 | 0.00 | 90 | 1010.6 |
| 20260503193810 | 11 | 0 | 0.0 | 9.7 | 0.00 | 0.00 | 0.00 | 90 | 1010.6 |
| 20260503193257 | 11 | 312 | 6.4 | 9.7 | 0.00 | 0.00 | 0.00 | 90 | 1010.6 |
| 20260503192231 | 12 | 305 | 8.0 | 12.9 | 0.00 | 0.00 | 0.00 | 90 | 1010.8 |
| 20260503191718 | 12 | 306 | 9.7 | 12.9 | 0.00 | 0.00 | 0.00 | 90 | 1010.9 |
| 20260503191205 | 12 | 306 | 8.0 | 12.9 | 0.00 | 0.00 | 0.00 | 90 | 1010.9 |
| 20260503190652 | 12 | 315 | 6.4 | 12.9 | 0.00 | 0.00 | 0.00 | 89 | 1011.0 |
| 20260503190139 | 13 | 303 | 6.4 | 8.0 | 0.00 | 0.00 | 0.00 | 90 | 1010.9 |
| 20260503185626 | 13 | 313 | 3.2 | 8.0 | 0.00 | 0.00 | 0.00 | 91 | 1011.0 |
| 20260503184600 | 12 | 0 | 0.0 | 9.7 | 0.00 | 0.00 | 0.00 | 91 | 1010.9 |
| 20260503184047 | 12 | 308 | 3.2 | 9.7 | 0.00 | 0.00 | 0.00 | 91 | 1011.0 |
| 20260503183534 | 12 | 285 | 3.2 | 9.7 | 0.00 | 0.00 | 0.00 | 91 | 1011.0 |
| 20260503183021 | 11 | 298 | 6.4 | 12.9 | 0.00 | 0.00 | 0.00 | 91 | 1011.0 |
| 20260503181442 | 12 | 298 | 6.4 | 11.3 | 0.00 | 0.00 | 0.00 | 92 | 1011.0 |
| 20260503180929 | 12 | 301 | 6.4 | 9.7 | 0.00 | 0.00 | 0.00 | 92 | 1010.9 |
| 20260503180416 | 12 | 303 | 6.4 | 9.7 | 0.00 | 0.00 | 0.00 | 92 | 1010.9 |
| 20260503175903 | 11 | 281 | 3.2 | 11.3 | 0.00 | 0.00 | 0.00 | 92 | 1010.9 |
| 20260503175350 | 11 | 306 | 3.2 | 11.3 | 0.00 | 0.00 | 0.00 | 92 | 1011.0 |
| 20260503174837 | 11 | 280 | 4.8 | 11.3 | 0.00 | 0.00 | 0.00 | 92 | 1010.9 |
| 20260503174324 | 11 | 287 | 4.8 | 11.3 | 0.00 | 0.00 | 0.00 | 92 | 1011.0 |
| 20260503173811 | 11 | 261 | 6.4 | 11.3 | 0.00 | 0.00 | 0.00 | 92 | 1011.0 |
| 20260503173258 | 11 | 306 | 1.6 | 11.3 | 0.00 | 0.00 | 0.00 | 92 | 1011.1 |
| 20260503172232 | 11 | 285 | 3.2 | 9.7 | 0.00 | 0.00 | 0.00 | 93 | 1011.0 |
| 20260503171719 | 11 | 284 | 4.8 | 9.7 | 0.00 | 0.00 | 0.00 | 92 | 1011.0 |
| 20260503170653 | 11 | 302 | 4.8 | 11.3 | 0.00 | 0.00 | 0.00 | 93 | 1011.0 |
| 20260503150653 | 10 | 0 | 0.0 | 0.0 | 0.00 | 0.00 | 0.00 | 93 | 1010.8 |
| 20260503150140 | 10 | 0 | 0.0 | 0.0 | 0.00 | 0.00 | 0.00 | 93 | 1010.8 |
| 20260503130654 | 7 | 0 | 0.0 | 0.0 | 0.00 | 0.00 | 0.00 | 93 | 1010.3 |
| 20260503130141 | 7 | 0 | 0.0 | 0.0 | 0.00 | 0.00 | 0.00 | 93 | 1010.3 |
| 20260503110655 | 7 | 0 | 0.0 | 0.0 | 0.00 | 0.00 | 0.00 | 93 | 1010.6 |
| 20260503110142 | 7 | 0 | 0.0 | 0.0 | 0.00 | 0.00 | 0.00 | 93 | 1010.6 |
| 20260503090143 | 7 | 0 | 0.0 | 0.0 | 0.00 | 0.00 | 0.00 | 92 | 1011.2 |
| 20260503081446 | 7 | 0 | 0.0 | 0.0 | 0.00 | 0.00 | 0.00 | 91 | 1011.5 |
| 20260503080933 | 7 | 0 | 0.0 | 0.0 | 0.00 | 0.00 | 0.00 | 91 | 1011.6 |
| 20260503080420 | 8 | 0 | 0.0 | 0.0 | 0.00 | 0.00 | 0.00 | 91 | 1011.6 |
| 20260503072749 | 8 | 0 | 0.0 | 0.0 | 0.00 | 0.00 | 0.00 | 91 | 1011.8 |
| 20260503072236 | 8 | 0 | 0.0 | 0.0 | 0.00 | 0.00 | 0.00 | 91 | 1011.8 |
| 20260503071723 | 8 | 0 | 0.0 | 0.0 | 0.00 | 0.00 | 0.00 | 91 | 1011.8 |
| 20260503071210 | 8 | 0 | 0.0 | 0.0 | 0.00 | 0.00 | 0.00 | 91 | 1011.9 |
| 20260503070657 | 8 | 0 | 0.0 | 0.0 | 0.00 | 0.00 | 0.00 | 91 | 1011.9 |
| 20260503054842 | 9 | 0 | 0.0 | 0.0 | 0.00 | 0.00 | 0.00 | 90 | 1012.2 |
| 20260503054329 | 9 | 0 | 0.0 | 0.0 | 0.00 | 0.00 | 0.00 | 90 | 1012.3 |
| 20260503053816 | 9 | 0 | 0.0 | 0.0 | 0.00 | 0.00 | 0.00 | 90 | 1012.3 |
| 20260503052750 | 9 | 0 | 0.0 | 0.0 | 0.00 | 0.00 | 0.00 | 90 | 1012.5 |
| 20260503052237 | 9 | 0 | 0.0 | 0.0 | 0.00 | 0.00 | 0.00 | 90 | 1012.5 |
| 20260503051724 | 9 | 0 | 0.0 | 0.0 | 0.00 | 0.00 | 0.00 | 90 | 1012.5 |
| 20260503051215 | 9 | 0 | 0.0 | 0.0 | 0.00 | 0.00 | 0.00 | 89 | 1012.6 |
| 20260503050658 | 10 | 0 | 0.0 | 0.0 | 0.00 | 0.00 | 0.00 | 89 | 1012.6 |
| 20260503050147 | 10 | 0 | 0.0 | 0.0 | 0.00 | 0.00 | 0.00 | 89 | 1012.7 |
| 20260503045632 | 10 | 0 | 0.0 | 0.0 | 0.00 | 0.00 | 0.00 | 89 | 1012.5 |
| 20260503045119 | 10 | 0 | 0.0 | 0.0 | 0.00 | 0.00 | 0.00 | 89 | 1012.4 |
| 20260503044606 | 10 | 0 | 0.0 | 0.0 | 0.00 | 0.00 | 0.00 | 89 | 1012.4 |
| 20260503044053 | 10 | 0 | 0.0 | 0.0 | 0.00 | 0.00 | 0.00 | 89 | 1012.3 |
| 20260503043540 | 10 | 0 | 0.0 | 0.0 | 0.00 | 0.00 | 0.00 | 89 | 1012.4 |
| 20260503043027 | 10 | 0 | 0.0 | 0.0 | 0.00 | 0.00 | 0.00 | 88 | 1012.3 |
| 20260503042001 | 10 | 0 | 0.0 | 0.0 | 0.00 | 0.00 | 0.00 | 88 | 1012.2 |
| 20260503041448 | 10 | 0 | 0.0 | 0.0 | 0.00 | 0.00 | 0.00 | 88 | 1012.1 |
| 20260503040934 | 10 | 0 | 0.0 | 0.0 | 0.00 | 0.00 | 0.00 | 88 | 1012.1 |
| 20260503040421 | 10 | 0 | 0.0 | 0.0 | 0.00 | 0.00 | 0.00 | 88 | 1012.1 |
| 20260503035908 | 10 | 0 | 0.0 | 0.0 | 0.00 | 0.00 | 0.00 | 88 | 1012.1 |
| 20260503034843 | 10 | 85 | 0.0 | 8.0 | 0.00 | 0.00 | 0.00 | 88 | 1012.0 |
| 20260503034329 | 10 | 0 | 0.0 | 8.0 | 0.00 | 0.00 | 0.00 | 87 | 1011.9 |
| 20260503033816 | 10 | 0 | 0.0 | 0.0 | 0.00 | 0.00 | 0.00 | 87 | 1011.9 |
| 20260503033304 | 10 | 0 | 0.0 | 0.0 | 0.00 | 0.00 | 0.00 | 87 | 1011.9 |
| 20260503032750 | 10 | 0 | 0.0 | 0.0 | 0.00 | 0.00 | 0.00 | 87 | 1011.9 |
| 20260503032237 | 10 | 0 | 0.0 | 0.0 | 0.00 | 0.00 | 0.00 | 87 | 1011.8 |
| 20260503031724 | 11 | 0 | 0.0 | 8.0 | 0.00 | 0.00 | 0.00 | 87 | 1011.9 |
| 20260503031211 | 11 | 0 | 0.0 | 8.0 | 0.00 | 0.00 | 0.00 | 87 | 1011.9 |
| 20260503030658 | 11 | 310 | 0.0 | 8.0 | 0.00 | 0.00 | 0.00 | 86 | 1011.9 |
| 20260503030147 | 11 | 0 | 0.0 | 0.0 | 0.00 | 0.00 | 0.00 | 86 | 1011.9 |
| 20260503025632 | 11 | 0 | 0.0 | 0.0 | 0.00 | 0.00 | 0.00 | 86 | 1011.9 |
| 20260503025119 | 11 | 0 | 0.0 | 9.7 | 0.00 | 0.00 | 0.00 | 86 | 1011.9 |
| 20260503024606 | 11 | 0 | 0.0 | 9.7 | 0.00 | 0.00 | 0.00 | 86 | 1012.2 |
| 20260503024053 | 11 | 68 | 0.0 | 9.7 | 0.00 | 0.00 | 0.00 | 86 | 1012.3 |
| 20260503023540 | 11 | 138 | 3.2 | 11.3 | 0.00 | 0.00 | 0.00 | 86 | 1012.3 |
| 20260503023027 | 11 | 71 | 4.8 | 11.3 | 0.00 | 0.00 | 0.00 | 85 | 1012.2 |
| 20260503022515 | 11 | 0 | 0.0 | 11.3 | 0.00 | 0.00 | 0.00 | 86 | 1012.2 |
| 20260503022001 | 11 | 149 | 1.6 | 6.4 | 0.00 | 0.00 | 0.00 | 85 | 1012.2 |
| 20260503021448 | 11 | 39 | 0.0 | 3.2 | 0.00 | 0.00 | 0.00 | 85 | 1012.3 |
| 20260503020935 | 11 | 40 | 0.0 | 14.5 | 0.00 | 0.00 | 0.00 | 86 | 1012.3 |
| 20260503020422 | 11 | 77 | 6.4 | 14.5 | 0.00 | 0.00 | 0.00 | 85 | 1012.4 |
| 20260503015909 | 11 | 33 | 3.2 | 14.5 | 0.00 | 0.00 | 0.00 | 85 | 1012.4 |
| 20260503015356 | 11 | 102 | 1.6 | 8.0 | 0.00 | 0.00 | 0.00 | 85 | 1012.2 |
| 20260503014844 | 11 | 82 | 3.2 | 16.1 | 0.00 | 0.00 | 0.00 | 85 | 1012.2 |
| 20260503014330 | 12 | 33 | 6.4 | 16.1 | 0.00 | 0.00 | 0.00 | 85 | 1012.2 |
| 20260503013817 | 11 | 357 | 9.7 | 16.1 | 0.00 | 0.00 | 0.00 | 85 | 1012.3 |
| 20260503013304 | 11 | 42 | 8.0 | 22.5 | 0.00 | 0.00 | 0.00 | 85 | 1012.3 |
| 20260503012751 | 11 | 42 | 3.2 | 22.5 | 0.00 | 0.00 | 0.00 | 85 | 1012.3 |
| 20260503012238 | 11 | 78 | 8.0 | 22.5 | 0.00 | 0.00 | 0.00 | 84 | 1012.3 |
| 20260503011726 | 11 | 64 | 4.8 | 17.7 | 0.00 | 0.00 | 0.00 | 85 | 1012.4 |
| 20260503011212 | 11 | 86 | 1.6 | 17.7 | 0.00 | 0.00 | 0.00 | 85 | 1012.4 |
| 20260503010659 | 11 | 65 | 6.4 | 16.1 | 0.00 | 0.00 | 0.00 | 84 | 1012.5 |
| 20260503010149 | 11 | 352 | 11.3 | 22.5 | 0.00 | 0.00 | 0.00 | 84 | 1012.5 |
| 20260503005634 | 11 | 337 | 4.8 | 22.5 | 0.00 | 0.00 | 0.00 | 84 | 1012.5 |
| 20260503005120 | 11 | 350 | 6.4 | 22.5 | 0.00 | 0.00 | 0.00 | 85 | 1012.5 |
| 20260503004704 | 11 | 0 | 0.0 | 17.7 | 0.00 | 0.00 | 0.00 | 84 | 1012.5 |
| 20260503004607 | 11 | 0 | 0.0 | 17.7 | 0.00 | 0.00 | 0.00 | 84 | 1012.5 |
| 20260503004054 | 11 | 99 | 4.8 | 17.7 | 0.00 | 0.00 | 0.00 | 84 | 1012.4 |
| 20260503003541 | 11 | 306 | 6.4 | 19.3 | 0.00 | 0.00 | 0.00 | 85 | 1012.5 |
| 20260503003028 | 11 | 86 | 6.4 | 19.3 | 0.00 | 0.00 | 0.00 | 85 | 1012.4 |
| 20260503002517 | 11 | 324 | 6.4 | 19.3 | 0.00 | 0.00 | 0.00 | 85 | 1012.3 |
| 20260503002002 | 11 | 324 | 6.4 | 17.7 | 0.00 | 0.00 | 0.00 | 85 | 1012.5 |
| 20260503001449 | 11 | 336 | 3.2 | 17.7 | 0.00 | 0.00 | 0.00 | 85 | 1012.5 |
| 20260503000937 | 11 | 86 | 9.7 | 17.7 | 0.00 | 0.00 | 0.00 | 84 | 1012.5 |
| 20260503000423 | 11 | 14 | 4.8 | 17.7 | 0.00 | 0.00 | 0.00 | 85 | 1012.6 |
| 20260502235910 | 11 | 121 | 6.4 | 17.7 | 0.00 | 0.00 | 0.00 | 85 | 1012.6 |
| 20260502235357 | 11 | 319 | 4.8 | 17.7 | 0.00 | 0.00 | 0.00 | 85 | 1012.6 |
| 20260502234844 | 11 | 9 | 8.0 | 16.1 | 0.00 | 0.00 | 0.00 | 85 | 1012.8 |
| 20260502234332 | 11 | 39 | 8.0 | 16.1 | 0.00 | 0.00 | 0.00 | 85 | 1012.8 |
| 20260502233818 | 11 | 309 | 6.4 | 19.3 | 0.00 | 0.00 | 0.00 | 85 | 1012.8 |
| 20260502233305 | 11 | 282 | 8.0 | 19.3 | 0.00 | 0.00 | 0.00 | 85 | 1012.9 |
| 20260502232753 | 11 | 357 | 8.0 | 19.3 | 0.00 | 0.00 | 0.00 | 85 | 1012.9 |
| 20260502232239 | 11 | 29 | 6.4 | 16.1 | 0.00 | 0.00 | 0.00 | 85 | 1012.9 |
| 20260502231727 | 11 | 9 | 8.0 | 20.9 | 0.00 | 0.00 | 0.00 | 85 | 1013.0 |
| 20260502231213 | 11 | 287 | 9.7 | 20.9 | 0.00 | 0.00 | 0.00 | 85 | 1013.2 |
| 20260502230700 | 11 | 327 | 9.7 | 20.9 | 0.00 | 0.00 | 0.00 | 85 | 1013.2 |
| 20260502230147 | 11 | 26 | 9.7 | 20.9 | 0.00 | 0.00 | 0.00 | 85 | 1013.3 |
| 20260502225634 | 11 | 15 | 11.3 | 20.9 | 0.00 | 0.00 | 0.00 | 85 | 1013.3 |
| 20260502225122 | 11 | 312 | 9.7 | 20.9 | 0.00 | 0.00 | 0.00 | 85 | 1013.5 |
| 20260502224608 | 11 | 36 | 6.4 | 16.1 | 0.00 | 0.00 | 0.00 | 85 | 1013.6 |
| 20260502224055 | 11 | 355 | 8.0 | 19.3 | 0.00 | 0.00 | 0.00 | 85 | 1013.7 |
| 20260502223542 | 12 | 16 | 9.7 | 19.3 | 0.00 | 0.00 | 0.00 | 84 | 1013.7 |
| 20260502223029 | 12 | 334 | 8.0 | 19.3 | 0.00 | 0.00 | 0.00 | 85 | 1013.8 |
| 20260502222516 | 11 | 63 | 3.2 | 16.1 | 0.00 | 0.00 | 0.00 | 86 | 1013.9 |
| 20260502222005 | 11 | 309 | 4.8 | 16.1 | 0.00 | 0.00 | 0.00 | 86 | 1013.8 |
| 20260502221450 | 11 | 317 | 8.0 | 16.1 | 0.00 | 0.00 | 0.00 | 85 | 1013.9 |
| 20260502220937 | 12 | 26 | 6.4 | 16.1 | 0.00 | 0.00 | 0.00 | 85 | 1014.0 |
| 20260502220424 | 12 | 67 | 8.0 | 17.7 | 0.00 | 0.00 | 0.00 | 85 | 1014.0 |
| 20260502215911 | 11 | 352 | 9.7 | 17.7 | 0.00 | 0.00 | 0.00 | 85 | 1014.1 |
| 20260502215358 | 11 | 315 | 8.0 | 17.7 | 0.00 | 0.00 | 0.00 | 86 | 1014.0 |
| 20260502214845 | 11 | 310 | 9.7 | 16.1 | 0.00 | 0.00 | 0.00 | 85 | 1014.1 |
| 20260502214332 | 11 | 313 | 8.0 | 16.1 | 0.00 | 0.00 | 0.00 | 85 | 1014.1 |
| 20260502213819 | 11 | 334 | 8.0 | 8.0 | 0.00 | 0.00 | 0.00 | 86 | 1014.1 |
| 20260502213306 | 11 | 0 | 6.4 | 16.1 | 0.00 | 0.00 | 0.00 | 85 | 1014.2 |
| 20260502212753 | 11 | 320 | 4.8 | 16.1 | 0.00 | 0.00 | 0.00 | 85 | 1014.3 |
| 20260502211727 | 11 | 75 | 0.0 | 16.1 | 0.00 | 0.00 | 0.00 | 85 | 1014.4 |
| 20260502211214 | 11 | 1 | 1.6 | 16.1 | 0.00 | 0.00 | 0.00 | 85 | 1014.4 |